INTELSAT 10-02

Last updated on Fri Dec 19 2025 00:02:48 GMT+0000 (Coordinated Universal Time)

1 28358U 04022A 25352.55378127 .00000014 00000+0 00000+0 0 9992 2 28358 0.0207 69.1310 0000893 233.9909 342.6942 1.00271255 78741
UTC large
Height (km)
Speed (km/s)
/
Latitude / Longitude
Inclination (degrees)
Orbital Period (minutes)
Azimuth
Elevation
Range (km)
Doppler Factor

Next 0 passes for location: London (51.5072 / 0.1276)

Sorry there are no passes over London.